Time,TemperatureF,DewpointF,PressureIn,WindDirection,WindDirectionDegrees,WindSpeedMPH,WindSpeedGustMPH,Humidity,HourlyPrecipIn,Conditions,Clouds,dailyrainin,SoftwareType,DateUTC
2018-04-25 00:07:00,52.9,32.0,30.16,SE,136,0.0,-999.0,45,-99.99,,,0.00,weatherlink.com 1.10,2018-04-25 06:07:00,
2018-04-25 00:22:00,52.2,32.0,30.16,SE,136,1.0,-999.0,46,-99.99,,,0.00,weatherlink.com 1.10,2018-04-25 06:22:00,
2018-04-25 00:37:00,51.7,31.0,30.16,SE,136,1.0,-999.0,46,-99.99,,,0.00,weatherlink.com 1.10,2018-04-25 06:37:00,
2018-04-25 00:52:00,51.7,32.0,30.16,South,169,4.0,-999.0,47,-99.99,,,0.00,weatherlink.com 1.10,2018-04-25 06:52:00,
2018-04-25 01:07:00,51.7,32.0,30.17,SSE,151,7.0,-999.0,47,-99.99,,,0.00,weatherlink.com 1.10,2018-04-25 07:07:00,
2018-04-25 01:22:00,51.8,31.0,30.16,SE,128,2.0,-999.0,46,-99.99,,,0.00,weatherlink.com 1.10,2018-04-25 07:22:00,
2018-04-25 01:37:00,51.8,32.0,30.16,SE,127,7.0,-999.0,47,-99.99,,,0.00,weatherlink.com 1.10,2018-04-25 07:37:00,
2018-04-25 01:52:00,51.7,32.0,30.16,SSE,155,5.0,-999.0,47,-99.99,,,0.00,weatherlink.com 1.10,2018-04-25 07:52:00,
2018-04-25 02:07:00,51.8,32.0,30.16,South,179,4.0,-999.0,47,-99.99,,,0.00,weatherlink.com 1.10,2018-04-25 08:07:00,
2018-04-25 02:22:00,51.7,32.0,30.15,SE,131,2.0,-999.0,48,-99.99,,,0.00,weatherlink.com 1.10,2018-04-25 08:22:00,
2018-04-25 02:37:00,51.2,32.0,30.14,SE,132,1.0,-999.0,49,-99.99,,,0.00,weatherlink.com 1.10,2018-04-25 08:37:00,
2018-04-25 02:52:00,50.3,32.0,30.14,SSE,160,0.0,-999.0,50,-99.99,,,0.00,weatherlink.com 1.10,2018-04-25 08:52:00,
2018-04-25 03:07:00,50.3,32.0,30.14,South,176,5.0,-999.0,50,-99.99,,,0.00,weatherlink.com 1.10,2018-04-25 09:07:00,
2018-04-25 03:22:00,49.8,32.0,30.14,South,187,4.0,-999.0,51,-99.99,,,0.00,weatherlink.com 1.10,2018-04-25 09:22:00,
2018-04-25 03:37:00,48.7,32.0,30.14,South,177,2.0,-999.0,53,-99.99,,,0.00,weatherlink.com 1.10,2018-04-25 09:37:00,
2018-04-25 03:52:00,47.5,32.0,30.14,South,171,1.0,-999.0,55,-99.99,,,0.00,weatherlink.com 1.10,2018-04-25 09:52:00,
2018-04-25 04:07:00,47.0,32.0,30.14,South,191,4.0,-999.0,56,-99.99,,,0.00,weatherlink.com 1.10,2018-04-25 10:07:00,
2018-04-25 04:22:00,47.1,32.0,30.14,South,186,4.0,-999.0,56,-99.99,,,0.00,weatherlink.com 1.10,2018-04-25 10:22:00,
2018-04-25 04:37:00,47.3,32.0,30.14,South,173,5.0,-999.0,56,-99.99,,,0.00,weatherlink.com 1.10,2018-04-25 10:37:00,
2018-04-25 04:52:00,47.9,32.0,30.14,South,173,5.0,-999.0,55,-99.99,,,0.00,weatherlink.com 1.10,2018-04-25 10:52:00,
2018-04-25 05:07:00,47.4,32.0,30.14,SE,144,2.0,-999.0,56,-99.99,,,0.00,weatherlink.com 1.10,2018-04-25 11:07:00,